NKS1 TJSJ-KMCO

Flight info

Callsign NKS1
Flight time N/A
Altitude 34000
Route ACONY3 SAPPO Y280 CHASO/N0448F360 Y280 OCTAL MUNGI1
Aircraft A320/M-SDE3FGHIRWY/LB1

Departure

Time 2026-05-04 01:35
Airport Luis Munoz Marin International Airport (TJSJ)

Arrival

Time N/A
Airport Orlando International Airport (KMCO)
Time Latitude Longitude Altitude Speed Heading
2026-05-04 01:15 18.43623 -66.00247 -29 ft 0 kts 359°
2026-05-04 01:25 18.43606 -66.00248 -41 ft 4 kts
2026-05-04 01:25 18.43584 -66.00247 -38 ft 2 kts 348°
2026-05-04 01:26 18.43563 -66.00238 -42 ft 4 kts 298°
2026-05-04 01:26 18.43560 -66.00213 -29 ft 4 kts 264°
2026-05-04 01:26 18.43561 -66.00202 -30 ft 0 kts 270°
2026-05-04 01:29 18.43561 -66.00205 -30 ft 2 kts 270°
2026-05-04 01:29 18.43537 -66.00225 -36 ft 8 kts 184°
2026-05-04 01:29 18.43461 -66.00246 -41 ft 14 kts 249°
2026-05-04 01:29 18.43465 -66.00353 -31 ft 15 kts 271°
2026-05-04 01:30 18.43467 -66.00460 -29 ft 15 kts 270°
2026-05-04 01:30 18.43468 -66.00575 -28 ft 16 kts 270°
2026-05-04 01:30 18.43467 -66.00702 -28 ft 18 kts 270°
2026-05-04 01:30 18.43466 -66.00844 -28 ft 20 kts 269°
2026-05-04 01:31 18.43464 -66.00989 -29 ft 18 kts 270°
2026-05-04 01:31 18.43463 -66.01130 -31 ft 21 kts 271°
2026-05-04 01:31 18.43466 -66.01202 -31 ft 2 kts 276°
2026-05-04 01:31 18.43471 -66.01269 -43 ft 16 kts 273°
2026-05-04 01:32 18.43492 -66.01360 -39 ft 9 kts 353°
2026-05-04 01:32 18.43580 -66.01362 -48 ft 15 kts 360°
2026-05-04 01:32 18.43690 -66.01362 -50 ft 17 kts
2026-05-04 01:32 18.43772 -66.01413 -38 ft 12 kts 263°
2026-05-04 01:33 18.43756 -66.01506 -39 ft 1 kts 275°
2026-05-04 01:33 18.43757 -66.01509 -39 ft 0 kts 284°
2026-05-04 01:33 18.43759 -66.01515 -44 ft 4 kts 296°
2026-05-04 01:33 18.43819 -66.01559 -40 ft 15 kts 355°
2026-05-04 01:34 18.43880 -66.01470 -44 ft 17 kts 65°
2026-05-04 01:34 18.43977 -66.01246 -41 ft 64 kts 67°
2026-05-04 01:34 18.44229 -66.00614 -47 ft 121 kts 67°
2026-05-04 01:34 18.44609 -65.99648 6 ft 160 kts 69°
2026-05-04 01:35 18.45028 -65.98595 655 ft 155 kts 69°
2026-05-04 01:35 18.45513 -65.97536 1049 ft 174 kts 58°
2026-05-04 01:35 18.46444 -65.96579 1287 ft 201 kts 34°
2026-05-04 01:35 18.47828 -65.95998 1563 ft 230 kts 12°
2026-05-04 01:36 18.49519 -65.95945 1951 ft 257 kts 354°
2026-05-04 01:36 18.51312 -65.96494 2439 ft 281 kts 336°
2026-05-04 01:36 18.53013 -65.97641 3013 ft 300 kts 320°
2026-05-04 01:36 18.54397 -65.99321 3832 ft 303 kts 303°
2026-05-04 01:37 18.55454 -66.01194 5024 ft 295 kts 301°
2026-05-04 01:37 18.56495 -66.03059 5921 ft 296 kts 301°
2026-05-04 01:37 18.57541 -66.04936 6739 ft 298 kts 301°
2026-05-04 01:37 18.58621 -66.06811 7477 ft 301 kts 305°
2026-05-04 01:38 18.59893 -66.08567 8254 ft 302 kts 311°
2026-05-04 01:38 18.61284 -66.10230 9096 ft 302 kts 314°
2026-05-04 01:38 18.62713 -66.11855 9911 ft 303 kts 314°
2026-05-04 01:38 18.64172 -66.13502 10374 ft 316 kts 313°
2026-05-04 01:39 18.65691 -66.15239 10576 ft 336 kts 313°
2026-05-04 01:39 18.67275 -66.17090 11078 ft 343 kts 312°
2026-05-04 01:39 18.68864 -66.18976 11710 ft 345 kts 311°
2026-05-04 01:39 18.70456 -66.20885 12340 ft 348 kts 311°
2026-05-04 01:40 18.72052 -66.22808 12982 ft 349 kts 311°
2026-05-04 01:40 18.73548 -66.24612 13563 ft 352 kts 311°
2026-05-04 01:40 18.75162 -66.26560 14142 ft 354 kts 311°
2026-05-04 01:40 18.76789 -66.28521 14678 ft 356 kts 310°
2026-05-04 01:41 18.78426 -66.30497 15207 ft 359 kts 310°
2026-05-04 01:41 18.80072 -66.32480 15785 ft 359 kts 309°
2026-05-04 01:41 18.81720 -66.34465 16375 ft 360 kts 309°
2026-05-04 01:41 18.83378 -66.36460 16930 ft 362 kts 309°
2026-05-04 01:42 18.85039 -66.38463 17475 ft 364 kts 309°
2026-05-04 01:42 18.86715 -66.40485 17982 ft 367 kts 309°
2026-05-04 01:42 18.88405 -66.42522 18475 ft 370 kts 309°
2026-05-04 01:42 18.90107 -66.44572 18928 ft 373 kts 309°
2026-05-04 01:43 18.91821 -66.46637 19353 ft 376 kts 309°
2026-05-04 01:43 18.93631 -66.48654 19762 ft 381 kts 314°
2026-05-04 01:43 18.95550 -66.50594 20187 ft 384 kts 314°
2026-05-04 01:43 18.97484 -66.52550 20628 ft 386 kts 314°
2026-05-04 01:44 18.99436 -66.54525 21016 ft 390 kts 315°
2026-05-04 01:44 19.01404 -66.56519 21386 ft 394 kts 315°
2026-05-04 01:44 19.03397 -66.58537 21760 ft 399 kts 315°
2026-05-04 01:44 19.05407 -66.60574 22126 ft 402 kts 315°
2026-05-04 01:45 19.07432 -66.62636 22487 ft 406 kts 313°
2026-05-04 01:45 19.09286 -66.64900 22842 ft 409 kts 308°
2026-05-04 01:45 19.12932 -66.69596 23567 ft 416 kts 309°
2026-05-04 01:46 19.14780 -66.71974 23868 ft 420 kts 309°
2026-05-04 01:46 19.16641 -66.74367 24206 ft 422 kts 309°
2026-05-04 01:46 19.18508 -66.76768 24577 ft 423 kts 309°
2026-05-04 01:46 19.20356 -66.79148 24899 ft 425 kts 309°
2026-05-04 01:47 19.22240 -66.81573 25236 ft 427 kts 309°
2026-05-04 01:47 19.24128 -66.84003 25581 ft 429 kts 308°
2026-05-04 01:47 19.26001 -66.86411 25905 ft 431 kts 308°
2026-05-04 01:47 19.27907 -66.88864 26246 ft 432 kts 308°
2026-05-04 01:48 19.29817 -66.91325 26606 ft 433 kts 308°
2026-05-04 01:48 19.31734 -66.93795 26938 ft 435 kts 308°
2026-05-04 01:48 19.33655 -66.96269 27273 ft 436 kts 308°
2026-05-04 01:48 19.35588 -66.98757 27597 ft 438 kts 308°
2026-05-04 01:49 19.37527 -67.01255 27914 ft 439 kts 308°
2026-05-04 01:49 19.39475 -67.03766 28223 ft 441 kts 308°
2026-05-04 01:49 19.41424 -67.06282 28551 ft 443 kts 307°
2026-05-04 01:49 19.43381 -67.08810 28898 ft 444 kts 307°
2026-05-04 01:50 19.45343 -67.11350 29226 ft 446 kts 308°
2026-05-04 01:50 19.47311 -67.13903 29562 ft 448 kts 307°
2026-05-04 01:50 19.49291 -67.16471 29898 ft 450 kts 308°
2026-05-04 01:50 19.51282 -67.19053 30204 ft 453 kts 307°
2026-05-04 01:51 19.53278 -67.21637 30484 ft 454 kts 307°
2026-05-04 01:51 19.55281 -67.24226 30781 ft 455 kts 308°
2026-05-04 01:51 19.57291 -67.26828 31079 ft 456 kts 308°
2026-05-04 01:51 19.59298 -67.29428 31433 ft 455 kts 308°
2026-05-04 01:52 19.61295 -67.32018 31896 ft 452 kts 308°
2026-05-04 01:52 19.63282 -67.34595 32320 ft 450 kts 308°
2026-05-04 01:52 19.65232 -67.37128 32765 ft 448 kts 308°
2026-05-04 01:52 19.67198 -67.39685 33210 ft 446 kts 308°
2026-05-04 01:53 19.69154 -67.42229 33656 ft 444 kts 308°
2026-05-04 01:53 19.71104 -67.44764 34010 ft 443 kts 308°
2026-05-04 01:53 19.74964 -67.49778 34094 ft 434 kts 308°
2026-05-04 01:54 19.78766 -67.54727 34100 ft 431 kts 308°
2026-05-04 01:54 19.82553 -67.59658 34097 ft 431 kts 308°
2026-05-04 01:55 19.86334 -67.64591 34096 ft 431 kts 308°
2026-05-04 01:55 19.90113 -67.69526 34095 ft 431 kts 308°
2026-05-04 01:56 19.93891 -67.74473 34099 ft 431 kts 308°
2026-05-04 01:56 19.97666 -67.79416 34102 ft 431 kts 308°
2026-05-04 01:57 20.01450 -67.84354 34104 ft 431 kts 308°
2026-05-04 01:57 20.05234 -67.89300 34107 ft 431 kts 308°
2026-05-04 01:58 20.09010 -67.94246 34106 ft 431 kts 308°
2026-05-04 01:58 20.12786 -67.99200 34112 ft 431 kts 308°
2026-05-04 01:59 20.16556 -68.04156 34113 ft 431 kts 308°
2026-05-04 01:59 20.20305 -68.09088 34113 ft 431 kts 308°
2026-05-04 02:00 20.24076 -68.14043 34114 ft 431 kts 308°
2026-05-04 02:00 20.27852 -68.19000 34119 ft 431 kts 308°
2026-05-04 02:01 20.31620 -68.23965 34112 ft 431 kts 308°
2026-05-04 02:01 20.35380 -68.28928 34110 ft 431 kts 308°
2026-05-04 02:02 20.39147 -68.33894 34114 ft 431 kts 308°
2026-05-04 02:02 20.42906 -68.38866 34110 ft 431 kts 308°
2026-05-04 02:03 20.46224 -68.44164 34107 ft 430 kts 301°
2026-05-04 02:03 20.49402 -68.49561 34106 ft 430 kts 301°
2026-05-04 02:04 20.52043 -68.54051 34112 ft 430 kts 301°
2026-05-04 02:04 20.55224 -68.59459 34110 ft 430 kts 301°
2026-05-04 02:05 20.58913 -68.65740 34109 ft 430 kts 301°
2026-05-04 02:05 20.61580 -68.70278 34108 ft 430 kts 301°
2026-05-04 02:06 20.64727 -68.75655 34102 ft 430 kts 301°
2026-05-04 02:06 20.67896 -68.81069 34102 ft 430 kts 301°
2026-05-04 02:07 20.71065 -68.86482 34108 ft 430 kts 301°
2026-05-04 02:07 20.74242 -68.91894 34106 ft 430 kts 301°
2026-05-04 02:08 20.77399 -68.97315 34102 ft 430 kts 301°
2026-05-04 02:08 20.80560 -69.02742 34107 ft 430 kts 301°
2026-05-04 02:09 20.83726 -69.08174 34110 ft 430 kts 301°
2026-05-04 02:09 20.86917 -69.13651 34095 ft 435 kts 301°
2026-05-04 02:10 20.90127 -69.19154 34095 ft 436 kts 301°
2026-05-04 02:10 20.93328 -69.24669 34337 ft 436 kts 301°
2026-05-04 02:11 20.94923 -69.27421 34722 ft 434 kts 301°
2026-05-04 02:11 20.96510 -69.30157 35078 ft 432 kts 301°
2026-05-04 02:11 20.98093 -69.32887 35446 ft 431 kts 301°
2026-05-04 02:11 20.99669 -69.35608 35802 ft 429 kts 301°
2026-05-04 02:12 21.01234 -69.38315 36049 ft 428 kts 301°
2026-05-04 02:12 21.02798 -69.41019 36092 ft 426 kts 301°
2026-05-04 02:12 21.05921 -69.46400 36092 ft 425 kts 301°
2026-05-04 02:13 21.09014 -69.51748 36092 ft 425 kts 301°
2026-05-04 02:13 21.12114 -69.57126 36092 ft 424 kts 301°
2026-05-04 02:14 21.15215 -69.62500 36090 ft 424 kts 301°
2026-05-04 02:14 21.18321 -69.67870 36089 ft 424 kts 301°
2026-05-04 02:15 21.21421 -69.73246 36109 ft 424 kts 300°
2026-05-04 02:15 21.24508 -69.78621 36111 ft 423 kts 300°
2026-05-04 02:16 21.27590 -69.83991 36108 ft 422 kts 300°
2026-05-04 02:16 21.30669 -69.89361 36108 ft 422 kts 300°
2026-05-04 02:17 21.33743 -69.94719 36105 ft 422 kts 300°
2026-05-04 02:17 21.36823 -70.00076 36108 ft 422 kts 300°
2026-05-04 02:18 21.39898 -70.05434 36106 ft 422 kts 300°
2026-05-04 02:18 21.42967 -70.10799 36102 ft 421 kts 300°
2026-05-04 02:19 21.46030 -70.16173 36103 ft 421 kts 300°
2026-05-04 02:19 21.49096 -70.21537 36101 ft 421 kts 300°
2026-05-04 02:20 21.52143 -70.26868 36102 ft 421 kts 300°
2026-05-04 02:20 21.55201 -70.32240 36102 ft 421 kts 300°
2026-05-04 02:21 21.58253 -70.37608 36101 ft 421 kts 300°
2026-05-04 02:21 21.61308 -70.42976 36110 ft 421 kts 300°
2026-05-04 02:22 21.64361 -70.48343 36106 ft 420 kts 300°
2026-05-04 02:22 21.67403 -70.53704 36106 ft 420 kts 299°
2026-05-04 02:23 21.70445 -70.59073 36106 ft 420 kts 299°
2026-05-04 02:23 21.73458 -70.64397 36102 ft 419 kts 299°
2026-05-04 02:24 21.76489 -70.69760 36102 ft 419 kts 299°
2026-05-04 02:24 21.79525 -70.75118 36098 ft 419 kts 299°
2026-05-04 02:25 21.82558 -70.80482 36101 ft 419 kts 299°
2026-05-04 02:25 21.85588 -70.85850 36093 ft 419 kts 299°
2026-05-04 02:26 21.88605 -70.91219 36098 ft 419 kts 299°
2026-05-04 02:26 21.91630 -70.96585 36096 ft 419 kts 299°
2026-05-04 02:27 21.94653 -71.01949 36098 ft 419 kts 299°
2026-05-04 02:27 21.97653 -71.07279 36097 ft 419 kts 299°
2026-05-04 02:28 22.00662 -71.12643 36113 ft 418 kts 298°
2026-05-04 02:28 22.03669 -71.18000 36109 ft 417 kts 298°
2026-05-04 02:29 22.06668 -71.23358 36104 ft 417 kts 298°
2026-05-04 02:29 22.09664 -71.28716 36103 ft 417 kts 298°
2026-05-04 02:30 22.12653 -71.34069 36102 ft 417 kts 298°
2026-05-04 02:30 22.15643 -71.39421 36100 ft 417 kts 298°
2026-05-04 02:31 22.18637 -71.44777 36100 ft 416 kts 298°
2026-05-04 02:31 22.21625 -71.50132 36099 ft 416 kts 298°
2026-05-04 02:32 22.24606 -71.55488 36101 ft 416 kts 298°
2026-05-04 02:32 22.27586 -71.60849 36102 ft 416 kts 298°
2026-05-04 02:33 22.30565 -71.66203 36105 ft 415 kts 298°
2026-05-04 02:33 22.33517 -71.71519 36104 ft 415 kts 298°
2026-05-04 02:34 22.36484 -71.76865 36102 ft 415 kts 298°
2026-05-04 02:34 22.39442 -71.82217 36116 ft 414 kts 298°
2026-05-04 02:35 22.42401 -71.87566 36107 ft 414 kts 298°
2026-05-04 02:35 22.45355 -71.92903 36111 ft 413 kts 297°
2026-05-04 02:36 22.48305 -71.98230 36106 ft 413 kts 297°
2026-05-04 02:36 22.51249 -72.03554 36104 ft 412 kts 297°
2026-05-04 02:37 22.54183 -72.08885 36104 ft 412 kts 297°
2026-05-04 02:37 22.57109 -72.14210 36096 ft 411 kts 297°
2026-05-04 02:38 22.60012 -72.19484 35639 ft 405 kts 297°
2026-05-04 02:38 22.61452 -72.22105 35204 ft 406 kts 297°
2026-05-04 02:38 22.62900 -72.24743 34806 ft 408 kts 297°
2026-05-04 02:39 22.64335 -72.27357 34468 ft 411 kts 297°
2026-05-04 02:39 22.65818 -72.30056 34159 ft 412 kts 297°
2026-05-04 02:39 22.67271 -72.32696 34056 ft 414 kts 297°
2026-05-04 02:39 22.68745 -72.35383 34087 ft 415 kts 297°
2026-05-04 02:40 22.71696 -72.40767 34084 ft 416 kts 297°
2026-05-04 02:40 22.74649 -72.46164 34085 ft 416 kts 297°
2026-05-04 02:41 22.77595 -72.51557 34084 ft 415 kts 297°
2026-05-04 02:41 22.80537 -72.56944 34090 ft 415 kts 297°
2026-05-04 02:42 22.83473 -72.62328 34086 ft 415 kts 296°
2026-05-04 02:42 22.86411 -72.67708 34089 ft 415 kts 296°
2026-05-04 02:43 22.89349 -72.73093 34088 ft 415 kts 296°
2026-05-04 02:43 22.92275 -72.78483 34090 ft 414 kts 296°
2026-05-04 02:44 22.95200 -72.83873 34086 ft 414 kts 296°
2026-05-04 02:44 22.98114 -72.89233 34083 ft 414 kts 296°
2026-05-04 02:45 23.01038 -72.94629 34077 ft 414 kts 296°
2026-05-04 02:45 23.03960 -73.00028 34085 ft 414 kts 296°
2026-05-04 02:46 23.06878 -73.05427 34084 ft 414 kts 296°
2026-05-04 02:46 23.09798 -73.10832 34080 ft 414 kts 296°
2026-05-04 02:47 23.12713 -73.16232 34083 ft 414 kts 296°
2026-05-04 02:47 23.15606 -73.21598 34090 ft 414 kts 296°
2026-05-04 02:48 23.18517 -73.26997 34102 ft 414 kts 296°
2026-05-04 02:48 23.21421 -73.32396 34099 ft 413 kts 295°
2026-05-04 02:49 23.24319 -73.37790 34092 ft 413 kts 295°
2026-05-04 02:49 23.27220 -73.43184 34087 ft 413 kts 295°
2026-05-04 02:50 23.30117 -73.48578 34084 ft 413 kts 295°
2026-05-04 02:50 23.33005 -73.53977 34086 ft 413 kts 295°
2026-05-04 02:51 23.35406 -73.58460 34090 ft 413 kts 295°
2026-05-04 02:51 23.38293 -73.63864 34079 ft 413 kts 295°
2026-05-04 02:52 23.41174 -73.69262 34092 ft 412 kts 295°
2026-05-04 02:52 23.44049 -73.74645 34087 ft 411 kts 295°
2026-05-04 02:53 23.46919 -73.80026 34088 ft 410 kts 295°
2026-05-04 02:53 23.49781 -73.85396 34085 ft 409 kts 295°
2026-05-04 02:54 23.52610 -73.90732 34084 ft 409 kts 295°
2026-05-04 02:54 23.55457 -73.96099 34088 ft 409 kts 295°
2026-05-04 02:55 23.59723 -74.04125 34095 ft 407 kts 295°
2026-05-04 02:56 23.62554 -74.09467 34090 ft 406 kts 295°
2026-05-04 02:56 23.65374 -74.14800 34087 ft 406 kts 295°
2026-05-04 02:57 23.68193 -74.20128 34083 ft 405 kts 295°
2026-05-04 02:57 23.71006 -74.25456 34081 ft 405 kts 295°
2026-05-04 02:58 23.73811 -74.30783 34079 ft 405 kts 295°
2026-05-04 02:58 23.76603 -74.36074 34087 ft 405 kts 294°
2026-05-04 02:59 23.79403 -74.41398 34086 ft 404 kts 294°
2026-05-04 02:59 23.82204 -74.46719 34084 ft 404 kts 294°
2026-05-04 03:00 23.85003 -74.52036 34082 ft 403 kts 294°
2026-05-04 03:00 23.87787 -74.57355 34081 ft 403 kts 294°
2026-05-04 03:01 23.90572 -74.62675 34081 ft 403 kts 294°
2026-05-04 03:01 23.93355 -74.67994 34076 ft 403 kts 294°
2026-05-04 03:02 23.96139 -74.73309 34075 ft 403 kts 294°
2026-05-04 03:02 23.98919 -74.78636 34074 ft 403 kts 294°
2026-05-04 03:03 24.01699 -74.83964 34074 ft 403 kts 294°
2026-05-04 03:03 24.04471 -74.89288 34073 ft 403 kts 294°
2026-05-04 03:04 24.07223 -74.94580 34073 ft 403 kts 294°
2026-05-04 03:04 24.10001 -74.99907 34073 ft 403 kts 294°
2026-05-04 03:05 24.12770 -75.05233 34073 ft 403 kts 294°
2026-05-04 03:05 24.15539 -75.10566 34077 ft 403 kts 293°
2026-05-04 03:06 24.18301 -75.15901 34077 ft 403 kts 293°
2026-05-04 03:06 24.21056 -75.21238 34073 ft 403 kts 293°
2026-05-04 03:07 24.23816 -75.26576 34071 ft 403 kts 293°
2026-05-04 03:07 24.26577 -75.31914 34071 ft 403 kts 293°
2026-05-04 03:08 24.29334 -75.37254 34082 ft 402 kts 293°
2026-05-04 03:08 24.32084 -75.42591 34100 ft 401 kts 294°
2026-05-04 03:09 24.34822 -75.47895 34090 ft 399 kts 294°
2026-05-04 03:09 24.37519 -75.53151 34087 ft 397 kts 294°
2026-05-04 03:10 24.40233 -75.58424 34081 ft 397 kts 294°
2026-05-04 03:10 24.42941 -75.63690 34072 ft 396 kts 294°
2026-05-04 03:11 24.45640 -75.68966 34073 ft 396 kts 294°
2026-05-04 03:11 24.48332 -75.74233 34071 ft 396 kts 294°
2026-05-04 03:12 24.51028 -75.79505 34077 ft 396 kts 294°
2026-05-04 03:12 24.53733 -75.84794 34048 ft 398 kts 294°
2026-05-04 03:13 24.56445 -75.90109 34041 ft 400 kts 294°
2026-05-04 03:13 24.59166 -75.95442 34042 ft 401 kts 294°
2026-05-04 03:14 24.61895 -76.00787 34044 ft 401 kts 294°
2026-05-04 03:14 24.64620 -76.06138 34047 ft 401 kts 294°
2026-05-04 03:15 24.67341 -76.11503 34047 ft 402 kts 294°
2026-05-04 03:15 24.70044 -76.16839 34077 ft 402 kts 294°
2026-05-04 03:16 24.72762 -76.22200 34073 ft 401 kts 294°
2026-05-04 03:16 24.75477 -76.27561 34070 ft 401 kts 294°
2026-05-04 03:17 24.78186 -76.32923 34071 ft 401 kts 294°
2026-05-04 03:17 24.80898 -76.38281 34066 ft 400 kts 294°
2026-05-04 03:18 24.83607 -76.43640 34062 ft 400 kts 294°
2026-05-04 03:18 24.86314 -76.48998 34062 ft 400 kts 293°
2026-05-04 03:19 24.89007 -76.54359 34071 ft 400 kts 293°
2026-05-04 03:19 24.91695 -76.59707 34071 ft 399 kts 293°
2026-05-04 03:20 24.94363 -76.65011 34067 ft 398 kts 293°
2026-05-04 03:20 24.97037 -76.70356 34062 ft 398 kts 293°
2026-05-04 03:21 24.99711 -76.75700 34058 ft 398 kts 293°
2026-05-04 03:21 25.02387 -76.81035 34058 ft 398 kts 293°
2026-05-04 03:22 25.05065 -76.86372 34061 ft 397 kts 293°
2026-05-04 03:22 25.07727 -76.91712 34078 ft 397 kts 292°
2026-05-04 03:23 25.10388 -76.97053 34075 ft 397 kts 292°
2026-05-04 03:23 25.13050 -77.02389 34073 ft 397 kts 292°
2026-05-04 03:24 25.15691 -77.07687 34070 ft 397 kts 292°
2026-05-04 03:24 25.18344 -77.13025 34067 ft 396 kts 292°
2026-05-04 03:25 25.20992 -77.18366 34068 ft 396 kts 292°
2026-05-04 03:25 25.23638 -77.23707 34078 ft 396 kts 292°
2026-05-04 03:26 25.26289 -77.29047 34080 ft 396 kts 292°
2026-05-04 03:26 25.28925 -77.34391 34077 ft 394 kts 290°
2026-05-04 03:27 25.30867 -77.39982 34073 ft 389 kts 284°
2026-05-04 03:27 25.32695 -77.45615 34060 ft 389 kts 284°
2026-05-04 03:28 25.34526 -77.51246 34060 ft 389 kts 284°
2026-05-04 03:28 25.36358 -77.56876 34058 ft 389 kts 284°
2026-05-04 03:29 25.38170 -77.62468 34067 ft 389 kts 284°
2026-05-04 03:29 25.39993 -77.68093 34066 ft 388 kts 284°
2026-05-04 03:30 25.41811 -77.73714 34067 ft 388 kts 284°
2026-05-04 03:30 25.43569 -77.79347 34055 ft 386 kts 282°
2026-05-04 03:31 25.45024 -77.85049 34076 ft 384 kts 279°
2026-05-04 03:31 25.46380 -77.90751 34077 ft 382 kts 279°
2026-05-04 03:32 25.47762 -77.96426 34073 ft 382 kts 280°
2026-05-04 03:32 25.49177 -78.02092 34070 ft 382 kts 280°
2026-05-04 03:33 25.50602 -78.07758 34065 ft 382 kts 280°
2026-05-04 03:33 25.52005 -78.13395 34058 ft 382 kts 280°
2026-05-04 03:34 25.53414 -78.19073 34055 ft 382 kts 280°
2026-05-04 03:34 25.54823 -78.24748 34053 ft 382 kts 280°
2026-05-04 03:35 25.56230 -78.30423 34051 ft 382 kts 280°
2026-05-04 03:35 25.57632 -78.36098 34050 ft 382 kts 280°
2026-05-04 03:36 25.59025 -78.41746 34053 ft 382 kts 280°
2026-05-04 03:36 25.60423 -78.47423 34054 ft 382 kts 280°
2026-05-04 03:37 25.61818 -78.53103 34054 ft 382 kts 280°
2026-05-04 03:37 25.63217 -78.58782 34053 ft 382 kts 280°
2026-05-04 03:38 25.64610 -78.64461 34049 ft 382 kts 280°
2026-05-04 03:38 25.65995 -78.70148 34060 ft 382 kts 279°
2026-05-04 03:39 25.67389 -78.75836 34054 ft 382 kts 279°
2026-05-04 03:39 25.68782 -78.81529 34053 ft 383 kts 279°
2026-05-04 03:40 25.70171 -78.87228 34055 ft 383 kts 279°
2026-05-04 03:40 25.71558 -78.92929 34053 ft 383 kts 279°
2026-05-04 03:41 25.72932 -78.98597 34052 ft 383 kts 279°
2026-05-04 03:41 25.74308 -79.04298 34053 ft 383 kts 279°
2026-05-04 03:42 25.75680 -79.10002 34057 ft 382 kts 279°